Regional Weather Roundup
Issued by NWS Grand Forks, ND

Home | Current Version | Previous Version | Text Only | Print | Product List | Glossary Off
Versions: 1 2 3 4 5 6 7 8 9 10 11 12 13 14 15 16 17 18 19 20 21 22 23 24 25 26 27 28 29 30 31 32 33 34 35 36 37 38 39 40 41 42 43 44 45 46 47 48 49 50

000
ASUS43 KFGF 270510
RWRFGF
PRAIRIE TO PINES  WEATHER ROUNDUP
NATIONAL WEATHER SERVICE EASTERN NORTH DAKOTA/GRAND FORKS ND
1100 PM CST THU FEB 26 2015

 **SATELLITE DATA USED TO AUGMENT SKY COVER AT AUTOMATED STATIONS**
 *****  WEATHER ACROSS EASTERN NORTH DAKOTA  *****

CITY           SKY/WX    TMP DP  RH WIND       PRES   REMARKS
GRAND FORKS    CLEAR     -6 -12  75 W7        30.49F WCI -20
GRAND FRKS AFB CLEAR     -4 -12  70 NW8       30.48F WCI -19
GRAND FRKS NWS   N/A     -6 N/A N/A W5          N/A  WCI -17
DEVILS LAKE    CLEAR    N/A N/A N/A MISG        N/A
FARGO          FAIR      -4 -11  72 W8        30.52S WCI -19
WAHPETON ARPT  FAIR      -2  -9  71 NW9       30.52F WCI -18
$$

 ***** WEATHER ACROSS CENTRAL AND WESTERN NORTH DAKOTA  *****

CITY           SKY/WX    TMP DP  RH WIND       PRES   REMARKS
BISMARCK       CLEAR     -6 -13  71 CALM      30.50F
MINOT          PTCLDY    -8 -14  74 SW6       30.45F WCI -21
JAMESTOWN      CLEAR     -8 -14  74 W8        30.47S WCI -24
MINOT AFB      PTCLDY   -14 -19  75 W10       30.46F WCI -33
GARRISON         N/A    -11 -16  78 CALM      30.46F
WILLISTON      CLEAR     -7 -12  79 CALM      30.44F
DICKINSON      CLEAR     -5 -11  75 S6        30.38F WCI -18
HETTINGER      CLEAR     -8 -14  74 CALM      30.40F
$$

 *****  OTHER AIRPORT OBSERVATIONS IN OUR AREA  *****

CITY           SKY/WX    TMP DP  RH WIND       PRES   REMARKS
WALHALLA         N/A      1  -9  60 W7        30.45F WCI -11
GRAFTON AIRPOR NOT AVBL
VALLEY CITY AR FAIR      -4  -9  77 W12       30.47F WCI -22
CANDO          FAIR      -9 -13  84 W9        30.45F WCI -27
CAVALIER APRT  FAIR       0  -9  65 W9        30.46F WCI -16
GWINNER        CLEAR     -4 -13  65 W10       30.52S WCI -21
SHEYENNE NWR     N/A    -12 -19  71 W5        29.95S WCI -24
ROLLA          FAIR      -9 -17  70 W5        30.40S WCI -21
 ***** THE ABOVE OBSERVATIONS ARE NON NWS ARE NOT QUALITY
       CONTROLLED AND MAY MIS-REPORT RAIN FOR SNOW...
$$

  *****  WEATHER ACROSS NORTHERN MINNESOTA  *****

CITY           SKY/WX    TMP DP  RH WIND       PRES   REMARKS
FLAG ISLAND    CLEAR     -4 -11  71 NW7       30.38F WCI -18
WARROAD        PTCLDY    -6 -11  77 W6        30.40F WCI -18
ROSEAU         PTCLDY    -2  -8  78 W6        30.42F WCI -14
HALLOCK        NOT AVBL
THF RVR FALLS  PTCLDY    -8 N/A N/A W3        30.43F
BAUDETTE       PTCLDY    -6 -12  75 W6        30.37F WCI -19
WASKISH        PTCLDY    -8 -11  84 SW7       30.40F WCI -22
CROOKSTON      CLEAR     -6 -11  77 W6        30.49F WCI -18
STEPHEN NDAWN    N/A     -6 -11  77 W6          N/A  WCI -18
GREENBUSH NDAW   N/A     -8 -11  84 VRB5        N/A  WCI -19
$$
  *****  WEATHER ACROSS CENTRAL AND WEST MINNESOTA  *****

CITY           SKY/WX    TMP DP  RH WIND       PRES   REMARKS
FOSSTON        PTCLDY   -15 -20  76 S5        30.44F WCI -27
BEMIDJI        CLEAR     -8 -12  82 W3        30.40F
PARK RAPIDS    CLEAR    -10 -15  78 W5        30.41S WCI -22
ELBOW LAKE     FAIR      -7 -11  81 NW6       30.48F WCI -20
WADENA         CLEAR     -8 -11  84 W5        30.44S WCI -19
DETROIT LAKES  PTCLDY     0  -4  85 W8        30.45F WCI -15
MOORHEAD       CLEAR     -2  -8  78 SW3       30.52S
FERGUS FALLS   CLEAR     -4 -11  71 NW7       30.53F WCI -18
MORRIS MN      CLEAR     -6 -11  77 NW9       30.50S WCI -22
STAPLES        CLEAR     -9 -13  84 CALM      30.44F
$$
  *****  WEATHER ELSEWHERE ACROSS MINNESOTA  *****

CITY           SKY/WX    TMP DP  RH WIND       PRES   REMARKS
DULUTH         CLEAR     -1 -14  53 NW8       30.35S WCI -15
INTRNTL FALLS  CLEAR     -9 -16  71 W7        30.37F WCI -24
ELY            CLEAR     -8 -17  65 SW3       30.33F
CLOQUET        CLEAR     -2 -15  55 W10       30.37F WCI -19
WHEATON        CLEAR     -8 -13  77 W6        30.55S WCI -21
BRAINERD       CLEAR     -4 -13  65 W5        30.44F WCI -15
HIBBING        CLEAR     -3 -13  62 NW6       30.37S WCI -15
ALEXANDRIA     CLEAR     -8 -12  83 W6        30.45F WCI -21
SAINT CLOUD    CLEAR      0  -9  65 NW8       30.47S WCI -14
MINNEAPOLIS    CLEAR      2  -8  63 NW9       30.49S WCI -13
$$

  *****  WEATHER ACROSS SOUTH DAKOTA  *****

CITY           SKY/WX    TMP DP  RH WIND       PRES   REMARKS
SIOUX FALLS    CLEAR     -5 -11  75 CALM      30.52S
BROOKINGS      NOT AVBL
WATERTOWN      CLEAR     -5 -11  75 W7        30.46F WCI -19
HURON          PTCLDY   -13 -18  78 W9        30.55F WCI -31
SISSETON         N/A     -4 -10  75 NW9       30.51F WCI -20
ABERDEEN       CLEAR     -5 -12  72 NW7       30.54F WCI -19
MITCHELL       CLEAR     -2  -8  76 W5        30.57S WCI -12
PIERRE         CLEAR     -1  -8  72 CALM      30.51F
MOBRIDGE       CLEAR     -9 -13  83 CALM      30.47F
RAPID CITY     CLEAR     -9 -15  75 NW5       30.37F WCI -20
$$

  *****  SOME WEATHER IN NEARBY STATES *****

CITY           SKY/WX    TMP DP  RH WIND       PRES   REMARKS
GLASGOW MT     CLEAR      3  -5  69 E10       30.34F WCI -12
GREAT FALLS MT CLEAR      6   2  83 SE5       30.05F WCI  -3
CHEYENNE WY    LGT SNOW   7   3  84 S13       30.06F FOG     WCI  -9
SCOTTSBLUFF NE CLOUDY     8   0  69 SE10      30.30S WCI  -6
OMAHA NE       CLEAR      3  -2  79 N5        30.59S WCI  -6
DES MOINES IA  CLEAR      0  -7  72 NW6       30.56R WCI -12
DAVENPORT IA   CLEAR    -12 -18  74 W10       30.49S WCI -31
CHICAGO IL     PTCLDY     1  -8  66 NW9       30.41S WCI -14
EAU CLAIRE WI  CLEAR     -2 -12  62 SW3       30.45R
LA CROSSE WI   CLEAR     -1  -9  68 CALM      30.49S
$$

  *****  SOME NATIONAL WEATHER *****

CITY           SKY/WX    TMP DP  RH WIND       PRES   REMARKS
LA GUARDIA NY  MOCLDY    23   9  55 NW10      30.15R WCI  12
RALEIGH NC     MOCLDY    29  26  89 CALM      30.17R FOG
ATLANTA GA     PTCLDY    33  29  85 NW7       30.17R
NEW ORLEANS LA MOCLDY    43  34  70 N14       30.26S
OKLAHOMA CITY  MOCLDY    24   1  36 NE14      30.46S WCI  12
ALBUQUERQUE NM CLOUDY    29  17  61 E28       29.96F WCI  14
SALT LAKE CITY MOCLDY    34  30  85 CALM      29.92R
LOS ANGELES CA PTCLDY    58  53  84 CALM      29.86R
BOISE ID       CLOUDY    41  33  73 CALM      29.91F
SEATTLE WA     LGT RAIN  50  47  89 SE7       29.89F FOG
$$

*** WEATHER ACROSS MANITOBA...SASKATCHEWAN AND ONTARIO ***
                ***ONTARIO***

CITY           SKY/WX    TMP DP  RH WIND       PRES   REMARKS
GERALDTON      CLEAR     -6 -13  71 W9        30.16S WCI -22
THUNDER BAY    CLEAR      0 -11  60 SW10      30.33F WCI -17
SIOUX LOOKOUT  CLEAR     -2 -11  65 W7        30.26F WCI -16
TORONTO        PTCLDY     1  -8  66 NW9       30.28R WCI -14
BIG TROUT LK   CLEAR      0  -9  65 W13       30.04F WCI -18
PICKLE LAKE    NOT AVBL
DRYDEN         CLEAR     -4 -13  65 W12       30.29S WCI -22
KENORA         CLEAR     -4 -11  71 W7        30.34S WCI -18
$$
                *** MANITOBA***

CITY           SKY/WX    TMP DP  RH WIND       PRES   REMARKS
BRANDON        CLEAR     -8 -15  71 W13       30.44S WCI -28
DAUPHIN        CLEAR      1  -8  66 W21       30.40F WCI -20
ISLAND LAKE    CLEAR      3 -11  51 W12       30.19F WCI -13
PILOT MOUND      N/A     -8 -13  77 W7          N/A  WCI -22
THE PAS        CLOUDY     5  -9  51 W13G21    30.28F WCI -12
THOMPSON       MOCLDY     9  -9  43 W15G22    30.10F WCI  -8
WINNIPEG       CLEAR     -6 -13  71 W7        30.44F WCI -20
LYNN LAKE      MOCLDY     9  -6  52 W16G24    30.03F WCI  -9
CHURCHILL      LGT SNOW   7   3  85 NW20G28   29.86F DRFTSNOWWCI -13
$$
                ***SASKATCHEWAN***

CITY           SKY/WX    TMP DP  RH WIND       PRES   REMARKS
ESTEVAN        CLEAR    -13 -17  84 SW7       30.43F WCI -29
KINDERSLEY     PTCLDY    -2  -8  78 SE8       30.21F WCI -17
LLOYDMINSTER   MOCLDY    -2  -9  71 S14       30.18F WCI -21
PRINCE ALBERT  PTCLDY    -8 -13  77 SW6       30.34F WCI -21
REGINA         CLEAR    -11 -15  84 SE9       30.39F WCI -29
YORKTON        CLEAR     -8 -15  71 SW9       30.38F WCI -25
N. BATTLEFORD  CLEAR     -9 -15  77 SE9       30.29F WCI -27
LA RONGE       PTCLDY     5  -8  56 SW7       30.22F WCI  -7
SASKATOON      CLEAR     -9 -13  84 S8        30.34F WCI -26
SWIFT CURRENT  CLEAR      1  -6  71 S21       30.19F WCI -20
$$
NOTE: THESE ARE AUTOMATED STATIONS WITH LIMITED QUALITY CONTROL
      "FAIR" INDICATES FEW OR NO CLOUDS BELOW 12,000 FEET WITH NO
      SIGNIFICANT WEATHER AND/OR OBSTRUCTIONS TO VISIBILITY.
      SKY/WX - SKY CONDITION AND SIGNIFICANT WEATHER.
      TMP - AIR TEMPERATURE.    DP   - DEWPOINT TEMPERATURE.
      RH  - RELATIVE HUMIDITY.  PRES - PRESSURE.
      HX  - HEAT INDEX.         WCI  - WIND CHILL INDEX.
$



USA.gov is the U.S. government's official web portal to all federal, state and local government web resources and services.